Terug naar catalogus

DELTA 1 DEB

ActiefPO
NORAD 21288·DEBRIS·🇺🇸 United States

Gelanceerd Jun 12, 1975 vanaf Vandenberg Space Force Base

Loading…

Volgende Passages (komende 24 uur)

TLE

VersSource: Space-Track

Epoch: Sep 14, 2026, 13:12 UTC

1 21288U 75052Z   26257.55045887 -.00000257  00000-0 -79099-3 0  9997
2 21288  99.6871 173.6981 0358349 351.1589 181.8379 12.75752907646426

Volg DELTA 1 DEB in realtime met AllMySat

Download on the App Store